Bellingham, WA

8:39 AM PST on November 18, 2017 (GMT -0800)
Bellingham International

Weather History for KBLI - November, 2012

Change the Weather History Date:

Friday, November 2, 2012

  Actual Average Record
Temperature  
Mean Temperature 58 °F 46 °F  
Max Temperature 64 °F 53 °F 68 °F (1949)
Min Temperature 52 °F 39 °F 21 °F (2002)
Degree Days  
Heating Degree Days 8 19  
Month to date heating degree days 38  
Cooling Degree Days 0 0  
Month to date cooling degree days 0  
Year to date cooling degree days 42  
Growing Degree Days 8 (Base 50)    
Moisture  
Dew Point 49 °F    
Average Humidity 78    
Maximum Humidity 93    
Minimum Humidity 52    
Precipitation  
Precipitation 0.08 in 0.19 in 1.07 in (1955)
Month to date precipitation 0.37  
Year to date precipitation 26.18  
Sea Level Pressure  
Sea Level Pressure 30.00 in    
Wind  
Wind Speed 4 mph (ESE)    
Max Wind Speed 10 mph    
Max Gust Speed -    
Visibility 10 miles    
Events Rain    
T = Trace of Precipitation, MM = Missing Value Source: NWS Daily Summary

Daily Weather History Graph

Daily Weather History Graph

Search for Another Location

Airport or City:

Trip Planner

Search our weather history database for the weather conditions in past years. The results will help you decide how hot, cold, wet, or windy it might be!

Date:

Astronomy

Nov. 02, 2012 Rise Set
Actual Time 7:59 AM PDT 5:47 PM PDT
Civil Twilight 7:26 AM PDT 6:20 PM PDT
Nautical Twilight 6:48 AM PDT 6:57 PM PDT
Astronomical Twilight 6:12 AM PDT 7:34 PM PDT
Moon 8:28 PM PDT (11/2) 11:34 AM PDT (11/2)
Length of Visible Light 10h 54m
Length of Day
9h 47m
Waning Gibbous, 86% of the Moon is Illuminated
Nov 2
Waning Gibbous
Nov 6
Last Quarter
Nov 13
New
Nov 20
First Quarter
Nov 28
Full

Hourly Weather History & Observations

Time (PDT) Temp. Dew Point Humidity Pressure Visibility Wind Dir Wind Speed Gust Speed Precip Events Conditions
12:53 AM 53.1 °F 51.1 °F 93% 30.01 in 10.0 mi Calm Calm - N/A   Overcast
1:53 AM 55.0 °F 51.1 °F 86% 30.02 in 10.0 mi SE 5.8 mph - N/A   Overcast
2:53 AM 55.9 °F 48.9 °F 77% 30.03 in 10.0 mi SSE 6.9 mph - N/A   Overcast
3:53 AM 55.9 °F 48.9 °F 77% 30.02 in 10.0 mi SE 5.8 mph - N/A   Overcast
4:28 AM 55.4 °F 48.2 °F 77% 30.00 in 10.0 mi SE 10.4 mph - N/A   Overcast
4:53 AM 55.9 °F 48.9 °F 77% 30.02 in 10.0 mi SE 5.8 mph - N/A   Overcast
5:49 AM 53.6 °F 48.2 °F 82% 30.01 in 10.0 mi ESE 4.6 mph - N/A   Scattered Clouds
5:53 AM 54.0 °F 48.0 °F 80% 30.03 in 10.0 mi East 5.8 mph - N/A   Mostly Cloudy
6:53 AM 55.9 °F 48.0 °F 75% 30.02 in 10.0 mi East 6.9 mph - N/A   Overcast
7:02 AM 55.4 °F 48.2 °F 77% 30.00 in 10.0 mi East 4.6 mph - N/A   Overcast
7:13 AM 55.4 °F 48.2 °F 77% 29.99 in 10.0 mi Variable 3.5 mph - N/A   Overcast
7:53 AM 52.0 °F 48.9 °F 89% 30.02 in 10.0 mi NE 3.5 mph - N/A   Overcast
8:53 AM 52.0 °F 48.9 °F 89% 30.03 in 10.0 mi Calm Calm - N/A   Overcast
11:53 AM 57.9 °F 50.0 °F 75% 30.03 in 10.0 mi Calm Calm - N/A   Overcast
12:53 PM 61.0 °F 52.0 °F 72% 30.01 in 10.0 mi Calm Calm - N/A   Scattered Clouds
1:53 PM 63.0 °F 46.9 °F 56% 29.99 in 10.0 mi SE 9.2 mph - N/A   Partly Cloudy
2:53 PM 63.0 °F 45.0 °F 52% 29.98 in 10.0 mi SSE 9.2 mph - N/A   Overcast
3:53 PM 62.1 °F 46.0 °F 56% 29.97 in 10.0 mi SE 9.2 mph - N/A   Overcast
4:53 PM 61.0 °F 46.0 °F 58% 29.97 in 10.0 mi Calm Calm - N/A   Overcast
5:53 PM 57.0 °F 51.1 °F 81% 29.97 in 10.0 mi Calm Calm - N/A   Overcast
6:53 PM 55.9 °F 48.9 °F 77% 29.99 in 10.0 mi SSE 9.2 mph - 0.00 in Rain Light Rain
7:53 PM 54.0 °F 51.1 °F 90% 29.98 in 9.0 mi ESE 5.8 mph - 0.08 in Rain Light Rain
8:53 PM 54.0 °F 50.0 °F 86% 29.96 in 10.0 mi ESE 6.9 mph - 0.00 in   Overcast
9:53 PM 55.0 °F 50.0 °F 83% 29.96 in 10.0 mi East 8.1 mph - N/A   Overcast
10:53 PM 54.0 °F 51.1 °F 90% 29.96 in 10.0 mi Calm Calm - 0.00 in   Overcast
11:53 PM 53.1 °F 51.1 °F 93% 29.96 in 10.0 mi Calm Calm - N/A   Overcast